Weather History for Houghton Lake, MI

Change the Weather History Date:

Thursday, April 4, 2013

  Actual Average Record
Temperature  
Mean Temperature 38 °F 37 °F  
Max Temperature 51 °F 48 °F 79 °F (1921)
Min Temperature 25 °F 26 °F 3 °F (1926)
Degree Days  
Heating Degree Days 27 28  
Month to date heating degree days 147 114  
Since 1 July heating degree days 6676 7099  
Cooling Degree Days 0 0  
Month to date cooling degree days 0 0  
Year to date cooling degree days 0 0  
Moisture  
Dew Point 23 °F    
Average Humidity 65    
Maximum Humidity 96    
Minimum Humidity 34    
Precipitation  
Precipitation T in 0.08 in 0.83 in (1928)
Month to date precipitation 0.01 0.33  
Year to date precipitation 6.53 4.89  
Snow  
Snow 0.00 in 0.20 in 6.70 in (1996)
Month to date snowfall 0.7 0.9  
Since 1 July snowfall 57.8 63.7  
Snow Depth 3.00 in    
Sea Level Pressure  
Sea Level Pressure 30.06 in    
Wind  
Wind Speed 10 mph (SW)    
Max Wind Speed 21 mph    
Max Gust Speed 29 mph    
Visibility 7 miles    
Events Rain    
T = Trace of Precipitation, MM = Missing Value Source: NWS Daily Summary

Daily Weather History Graph

Daily Weather History Graph

Search for Another Location

Airport:

Trip Planner

Search our weather history database for the weather conditions in past years. The results will help you decide how hot, cold, wet, or windy it might be!

Date:

Astronomy

Apr. 04, 2013 Rise Set
Actual Time 7:13 AM EDT 8:10 PM EDT
Civil Twilight 6:44 AM EDT 8:39 PM EDT
Nautical Twilight 6:09 AM EDT 9:14 PM EDT
Astronomical Twilight 5:32 AM EDT 9:51 PM EDT
Moon 3:52 AM EDT (4/4) 2:15 PM EDT (4/4)
Length of Visible Light 13h 55m
Length of Day
12h 56m
Waning Crescent, 34% of the Moon is Illuminated
Apr 4
Waning Crescent
Apr 10
New
Apr 18
First Quarter
Apr 25
Full
May 2
Last Quarter

Hourly Weather History & Observations

Time (EDT) Temp. Windchill Dew Point Humidity Pressure Visibility Wind Dir Wind Speed Gust Speed Precip Events Conditions
12:53 AM 28.0 °F 21.7 °F 15.1 °F 58% 30.30 in 10.0 mi SW 5.8 mph - N/A   Clear
1:53 AM 26.1 °F 19.4 °F 15.1 °F 63% 30.29 in 10.0 mi South 5.8 mph - N/A   Clear
2:53 AM 27.0 °F 19.5 °F 15.1 °F 61% 30.27 in 10.0 mi SSW 6.9 mph - N/A   Clear
3:53 AM 26.1 °F 18.4 °F 15.1 °F 63% 30.24 in 10.0 mi SW 6.9 mph - N/A   Clear
4:53 AM 26.1 °F 17.6 °F 12.9 °F 58% 30.22 in 10.0 mi SSW 8.1 mph - N/A   Clear
5:53 AM 27.0 °F 16.1 °F 10.9 °F 51% 30.20 in 10.0 mi SSW 12.7 mph - N/A   Clear
6:53 AM 27.0 °F 18.0 °F 8.1 °F 45% 30.19 in 10.0 mi SW 9.2 mph - N/A   Clear
7:53 AM 28.0 °F 19.3 °F 10.0 °F 47% 30.18 in 10.0 mi SW 9.2 mph - N/A   Clear
8:53 AM 30.0 °F 22.4 °F 12.9 °F 49% 30.17 in 10.0 mi SSW 8.1 mph - N/A   Clear
9:53 AM 36.0 °F 29.0 °F 16.0 °F 44% 30.12 in 10.0 mi SW 9.2 mph - N/A   Clear
10:53 AM 41.0 °F 34.3 °F 19.0 °F 41% 30.09 in 10.0 mi SW 11.5 mph 20.7 mph N/A   Clear
11:53 AM 45.0 °F 38.2 °F 19.9 °F 37% 30.06 in 10.0 mi SW 15.0 mph 23.0 mph N/A   Clear
12:53 PM 48.0 °F - 21.0 °F 34% 30.03 in 10.0 mi WSW 13.8 mph 23.0 mph N/A   Clear
1:53 PM 48.9 °F - 24.1 °F 38% 30.00 in 10.0 mi WSW 13.8 mph 24.2 mph N/A   Clear
2:53 PM 48.9 °F - 24.1 °F 38% 29.96 in 10.0 mi WSW 13.8 mph - N/A   Clear
3:53 PM 51.1 °F - 24.1 °F 35% 29.93 in 10.0 mi WSW 16.1 mph 21.9 mph N/A   Clear
4:53 PM 51.1 °F - 24.1 °F 35% 29.91 in 10.0 mi WSW 16.1 mph 23.0 mph N/A   Partly Cloudy
5:53 PM 46.9 °F - 25.0 °F 42% 29.93 in 10.0 mi West 18.4 mph 24.2 mph N/A   Overcast
6:53 PM 37.0 °F 29.3 °F 33.1 °F 86% 29.99 in 5.0 mi WNW 11.5 mph - 0.00 in Rain Light Rain
7:53 PM 37.0 °F 33.3 °F 34.0 °F 89% 29.98 in 6.0 mi West 4.6 mph - 0.00 in   Overcast
8:53 PM 35.1 °F 32.2 °F 33.1 °F 92% 29.98 in 6.0 mi WSW 3.5 mph - N/A   Partly Cloudy
9:40 PM 32.0 °F - 28.4 °F 87% 29.95 in 2.5 mi Calm Calm - N/A   Clear
9:48 PM 32.0 °F - 30.2 °F 93% 29.96 in 3.0 mi Calm Calm - N/A   Scattered Clouds
9:53 PM 32.0 °F - 30.9 °F 96% 30.00 in 2.0 mi Calm Calm - N/A   Scattered Clouds
10:10 PM 30.2 °F - 30.2 °F 100% 29.96 in 1.5 mi Calm Calm - N/A   Mostly Cloudy
10:15 PM 30.2 °F - 30.2 °F 100% 29.96 in 0.8 mi Calm Calm - N/A   Mostly Cloudy
10:32 PM 30.2 °F - 28.4 °F 93% 29.96 in 1.2 mi Calm Calm - N/A   Mostly Cloudy
10:45 PM 30.2 °F - 28.4 °F 93% 29.96 in 2.0 mi Calm Calm - N/A   Mostly Cloudy
10:53 PM 30.0 °F - 28.9 °F 96% 30.00 in 2.5 mi Calm Calm - N/A   Mostly Cloudy
11:28 PM 32.0 °F - 30.2 °F 93% 29.97 in 3.0 mi Calm Calm - N/A   Mostly Cloudy
11:53 PM 34.0 °F 29.8 °F 32.0 °F 92% 30.00 in 5.0 mi NNW 4.6 mph - N/A   Overcast